Dewpoint
50 52 54 55 56 57 57 57 55 52 51 53 53 52 51 51 52 51 51 51 53 54 55 56 56 57 57 58 59 59 59 57 56 53 51 50 48 46
46 47 48 50 52 55 56 56 55 54 51 52 52 55 54 52 52 52 52 52 52 54 55 55 55 56 56 57 57 58 57 55 53 52 50 48 46 43
46 46 48 49 50 52 53 53 53 53 51 50 53 55 56 54 53 52 52 52 52 53 54 55 55 55 56 56 56 56 54 52 51 50 48 46 43 43
39 43 46 47 49 50 50 50 50 51 51 49 50 52 53 55 55 53 52 52 52 52 54 54 55 55 55 55 54 53 51 50 49 47 45 43 42 42
40 43 46 47 45 46 48 48 48 49 50 49 49 51 52 53 52 51 52 52 51 52 53 53 55 55 55 54 53 51 50 48 47 45 42 41 41 41
44 46 44 40 40 44 45 46 47 48 48 48 49 48 49 50 51 52 49 46 48 47 49 50 53 54 54 53 51 49 48 46 45 43 40 39 39 38
41 35 37 39 43 45 40 38 43 44 44 46 46 48 49 48 47 47 47 50 46 47 45 46 50 51 51 51 48 47 46 44 44 42 40 39 37 37
29 29 35 37 41 38 38 41 43 43 44 44 44 44 45 48 49 50 49 47 46 44 45 45 46 46 46 47 46 46 44 43 43 40 39 37 37 36
25 26 28 34 35 29 34 39 37 41 43 43 42 42 43 44 48 48 48 49 47 42 43 41 39 41 40 42 45 44 43 42 40 39 37 37 36 36
25 25 30 34 32 33 34 34 34 37 38 40 41 41 42 44 46 46 47 46 37 38 40 37 35 37 36 38 43 43 41 40 39 37 37 36 35 35
25 26 32 33 35 36 33 34 35 36 40 42 43 44 44 45 46 45 43 39 36 34 34 33 31 30 32 33 37 40 39 38 37 36 35 35 35 34
26 28 35 33 34 34 32 34 35 37 39 39 40 42 44 44 44 42 43 41 38 31 32 32 30 30 28 30 32 33 36 37 35 35 35 35 34 31
28 30 29 33 33 34 35 36 37 37 38 36 38 40 42 36 35 35 35 39 36 33 33 32 30 27 28 25 27 29 24 23 26 29 33 34 33 32
29 28 28 32 35 37 35 37 37 37 35 34 35 35 35 34 33 33 33 33 34 34 35 32 29 27 25 23 22 20 20 20 20 19 19 23 29 30
27 30 30 33 32 31 32 34 35 33 33 32 33 34 34 33 30 30 31 30 29 29 29 29 28 26 26 24 20 19 18 19 20 19 19 19 19 19
30 25 30 28 28 28 29 30 31 32 33 33 32 33 32 30 29 29 28 28 26 25 27 27 26 25 22 22 21 19 19 16 20 20 20 19 19 19
24 26 25 24 25 26 26 28 30 31 32 32 32 31 30 28 27 28 28 27 25 24 24 25 25 24 23 20 17 18 19 19 19 20 20 18 19 19
22 23 23 23 24 25 26 28 29 31 32 31 30 30 28 27 26 27 28 26 24 24 23 24 23 16 14 17 21 19 20 19 19 20 19 17 16 17
21 24 23 22 24 25 25 28 28 30 32 30 29 28 28 26 27 26 27 26 25 23 20 19 12 5 4 4 14 24 19 20 20 19 19 18 17 18
22 23 22 22 23 25 26 26 27 30 30 29 28 27 27 27 26 26 26 25 22 20 16 10 3 -1 1 4 9 14 24 20 17 13 14 18 19 22
22 21 21 21 24 26 23 25 26 29 30 28 27 27 26 26 26 26 26 24 22 17 12 10 5 17 -5 2 8 13 16 20 19 17 19 19 20 21
21 21 21 22 26 23 23 25 26 29 28 27 26 26 27 27 26 25 24 22 20 17 11 2 1 1 1 5 5 8 14 18 21 24 26 25 22 16
22 22 21 23 25 23 23 25 26 28 28 27 26 26 26 25 24 23 22 19 17 14 12 10 5 2 5 9 8 8 10 14 17 17 23 27 28 28
Lifted_Index
8 7 6 4 3 1 0 -1 -0 0 1 1 1 0 -0 -0 -0 -1 -1 -0 -0 -0 -0 -0 -1 -1 -1 -1 -1 -1 -1 0 1 1 2 3 5 7
8 7 6 5 3 2 1 0 -0 0 1 1 1 0 0 -0 -0 -1 -1 -0 -0 -0 -0 -0 -1 -1 -1 -1 -1 -1 -0 0 1 1 2 3 6 8
7 7 6 5 4 3 2 1 1 1 1 1 1 1 0 -0 -0 -1 -1 -1 -0 -0 -0 -0 -1 -0 -0 -0 -0 -0 0 1 1 2 3 5 8 10
7 7 6 5 4 4 3 3 2 2 1 1 1 1 0 -0 -0 -0 -0 -1 -0 -0 0 -0 -1 -0 -0 0 0 0 1 1 2 3 4 6 10 11
7 6 6 5 5 5 4 4 3 2 1 1 1 1 0 -0 -0 -0 -0 -0 0 0 0 -0 -1 -0 -0 0 1 1 1 2 3 4 6 8 11 13
6 6 6 6 6 6 5 5 4 3 2 2 1 1 1 0 0 0 0 1 1 1 1 0 0 0 0 1 2 2 2 3 4 6 7 10 13 14
6 7 7 7 7 7 7 7 6 4 4 3 2 2 1 1 1 0 1 1 2 2 2 2 1 1 2 2 3 3 3 4 6 8 10 13 14 15
8 8 8 8 8 8 9 9 7 6 5 5 4 3 3 2 2 1 1 1 1 2 2 2 2 2 3 3 4 4 5 6 8 10 13 15 15 16
10 10 10 9 9 10 10 10 9 8 7 6 6 5 4 3 3 2 1 1 1 1 2 2 2 3 4 5 6 6 7 8 9 12 15 16 16 16
12 12 11 11 11 11 11 11 11 10 9 7 7 6 5 4 3 2 2 2 2 1 1 2 2 3 4 6 8 9 10 10 11 13 16 16 16 16
13 12 12 11 11 12 12 12 11 10 9 8 7 6 6 5 3 2 2 1 2 2 2 2 3 3 4 7 9 10 11 12 13 15 16 16 17 17
13 12 12 12 12 12 12 11 11 10 9 8 7 6 5 4 3 2 2 2 2 2 2 3 3 4 5 7 9 11 12 14 16 17 17 17 17 17
13 13 13 12 12 12 11 10 10 9 8 7 6 5 3 3 2 2 3 3 4 4 4 4 5 6 6 7 9 11 14 16 18 17 17 17 17 17
12 13 13 12 11 11 11 10 10 9 8 6 5 4 3 3 4 4 5 6 7 7 7 7 7 8 7 7 8 11 15 18 18 18 18 18 17 17
11 12 12 12 12 11 11 10 9 9 8 6 5 5 5 6 6 7 8 9 10 10 10 10 10 9 9 9 10 13 16 18 18 18 18 18 17 17
11 11 12 12 12 12 11 10 9 9 8 7 7 8 8 9 9 10 11 11 11 11 12 12 12 12 12 13 14 15 16 17 17 17 17 16 16 16
12 12 12 12 12 12 11 9 9 9 9 9 9 10 10 11 11 12 12 12 11 11 11 12 14 15 16 17 17 17 16 16 16 16 15 14 14 14
13 13 12 12 12 11 10 9 9 10 10 11 11 11 12 12 13 13 13 13 12 11 11 13 15 16 17 17 17 17 16 16 15 14 13 12 12 12
13 13 13 12 12 12 11 10 10 11 12 12 13 13 13 14 14 14 14 13 12 12 13 15 16 16 15 15 16 16 15 14 13 13 12 11 11 11
14 13 13 13 13 13 12 12 11 12 13 14 15 15 15 15 15 14 14 13 13 13 15 16 17 16 15 14 14 14 14 13 12 11 10 10 10 10
14 14 14 14 14 14 13 12 13 14 15 15 16 16 16 15 15 15 14 14 15 15 16 16 17 17 16 14 13 12 12 12 11 11 10 9 9 9
15 15 15 15 15 14 14 13 14 15 16 16 16 16 16 15 15 15 16 16 16 16 16 16 16 15 14 12 11 11 11 12 11 10 9 9 8 8
15 15 15 15 15 15 14 13 14 16 16 16 16 16 15 15 15 16 17 17 17 16 16 15 14 13 12 11 10 10 11 11 10 9 9 8 8 8